默认 日期 大小 文件数 浏览量 最新下载 xml
the rat磁力链接相关资源由用户搜索指令自动获取,结果来源于网络,本站不存储任何资料,亦不承担任何责任,请于24小时内删除,搜索到1951个磁力,用时26ms。
    ... Back.mp3": 7477167, "Out Of The Can small.JPG": 8968, "05 ... Rat - Out Of The Can back.jpg": 266312, "Great King Rat - Out Of The ...
创建时间: 2018-12-24 15:34:41 大小:63.78 MB 文件数量:13 热度:8 最近下载:2023-04-14 07:00:20
    ... .mp3": 10248585, "03 - Let The Water Run Down.mp3": 5419068 ... Evening.mp3": 8910071, "19 - The Day That Lorraine Came Down ... ": 7809803, "13 - Zing! Went The Strings Of My Heart.mp3 ... 6392931, "20 - Rockin' Pneumonia And The Boogie Woogie Flu.mp3": 5009488 ...
创建时间: 2018-12-25 06:50:54 大小:132.58 MB 文件数量:20 热度:7 最近下载:2023-04-15 08:10:08
    {"cover-art": {"IMG.jpg": 1217734, "IMG_0001.jpg": 1179977, "IMG_0002.jpg": 3914791, "IMG_0003.jpg": 914668, "IMG_0004.jpg": 868693, "IMG_0005.jpg": 951523, "IMG_0006.jpg": 813630}, "03 Jeopardy.mp3": 9234484, "07 Hothouse.mp3": 9427624, "01 Heartland.mp3 ...
创建时间: 2018-12-25 14:00:54 大小:82.37 MB 文件数量:15 热度:9 最近下载:2024-10-03 21:57:01
    {"RARBG.txt": 30, "vegas.rat.rods.s03e03.fuel.to.the.fire.1080p.webrip.x264-webster.mkv": 1471170961, "vegas.rat.rods.s03e03.fuel.to.the.fire.1080p.webrip.x264-webster.nfo": 1004}
创建时间: 2018-12-27 09:31:13 大小:1.37 GB 文件数量:3 热度:10 最近下载:2025-09-21 11:50:06
    {"Front.jpg": 1604175, "01 - Black Rat.mp3": 8476662, "08 - Fixations.mp3": ...
创建时间: 2018-12-27 18:23:32 大小:92.24 MB 文件数量:13 热度:4 最近下载:2022-05-01 05:44:06
    {"Hide-Your-IP-using-FiveStarVPN.com.txt": 91, "Torrent-Downloaded-from-ExtraTorrent.cc.txt": 176, "FutileStruggles.Maintenance.Man.Finally.Has.Enough.Of.The.Cock.Tease.Gym.Rat-Part.1.XXX.720p.MP4-hUSHhUSH[N1C].mp4": 437536271}
创建时间: 2018-12-28 18:54:46 大小:417.27 MB 文件数量:3 热度:10 最近下载:2025-09-19 05:07:03
    ... .Finally.Has.Enough.Of.The.Cock.Tease.Gym.Rat-Part.3.XXX ...
创建时间: 2018-12-28 23:22:01 大小:726.72 MB 文件数量:4 热度:15 最近下载:2025-09-19 05:07:05
    ... 310722, "1..f@.#k the world feed the rat.jpg": 3101, "Torrent ... Waiting.mp3": 8757416, "05 The Jezebel Spirit.mp3": 11864943, " ... Culpa.FLAC": 31967906, "08 The Carrier.FLAC": 26008624, "10 ... Waiting.FLAC": 26437718, "05 The Jezebel Spirit.FLAC": 33138381, " ...
创建时间: 2018-12-29 08:46:56 大小:502.71 MB 文件数量:46 热度:16 最近下载:2025-09-19 11:29:06
    {"VIDEO_TS.BUP": 24576, "VIDEO_TS.IFO": 24576, "VTS_01_0.BUP": 188416, "VTS_01_0.IFO": 188416, "VTS_01_0.VOB": 22648832, "VTS_01_1.VOB": 1073739776, "VTS_01_2.VOB": 1073739776, "VTS_01_3.VOB": 1073739776, "VTS_01_4.VOB": 1073739776, "VTS_01_5.VOB": ...
创建时间: 2018-12-29 19:03:59 大小:6.49 GB 文件数量:51 热度:11 最近下载:2025-08-02 05:57:05
    ... , "05 Judgment.mp3": 12136804, "08 The Fire.mp3": 6914716, "04 Skeletons ... Purpose.mp3": 9280420, "03 Contact the Fact.mp3": 10455964, "10 New ...
创建时间: 2018-12-30 06:31:12 大小:116.86 MB 文件数量:17 热度:6 最近下载:2023-04-19 21:00:13
    {"[RAT]": {"1.jpg": 3101, "2. ... Concert [-].FLAC": 11506274}, "THE BIRTH, THE DEATH, THE GHOST": {"08. Bad Mood ... 70026606, "Gun Club - The Birth, The Death, The Ghost.jpg": 5887}, "DA ... Version].FLAC": 13405325, "08 The Devil & The Nigger [Demo Version].FLAC": ...
创建时间: 2018-12-30 11:20:36 大小:12.11 GB 文件数量:509 热度:11 最近下载:2025-02-04 12:54:05
    {"The Pit.mp3": 2161036, "Ann Song. ... .mp3": 4651231, " 5000 Candles in the Wind.mp3": 3676560}
创建时间: 2018-12-30 14:31:03 大小:19.47 MB 文件数量:9 热度:5 最近下载:2023-04-20 02:40:05
    {"cover-art": {"IMG.jpg": 1217734, "IMG_0001.jpg": 1179977, "IMG_0002.jpg": 3914791, "IMG_0003.jpg": 914668, "IMG_0004.jpg": 868693, "IMG_0005.jpg": 951523, "IMG_0006.jpg": 813630}, "06 Heyday.mp3": 7325008, "11 Desire.mp3": 8604952, "05 Missiles.mp3": ...
创建时间: 2018-12-30 22:05:03 大小:134.12 MB 文件数量:22 热度:11 最近下载:2025-05-07 09:45:01
    ... ": 143, "Elvis Presley - The King Live 2005 [RAT-DVDFULL][www.pctorrent.com ...
创建时间: 2018-12-31 02:54:32 大小:829.67 MB 文件数量:4 热度:9 最近下载:2025-02-19 00:46:01
    {"Bryan Talbot - The Tale Of One Bad Rat 01 (Restored).cbz": 44296841, ... "Bryan Talbot - The Tale Of One Bad Rat 02 (Restored).cbz ... , "Bryan Talbot - The Tale Of One Bad Rat 03 (Restored).cbz ... , "Bryan Talbot - The Tale Of One Bad Rat 04 (Restored).cbz ...
创建时间: 2019-01-01 22:24:56 大小:159.33 MB 文件数量:4 热度:7 最近下载:2025-03-11 00:53:02
    ... Kelly - 2003 - Black Rat Swing- The Collectors' Jo Ann Kelly ... ].flac": 18082602, "Black Rat Swing The Collectors' Jo Anne Kelly ... Kelly - 2003 - Black Rat Swing- The Collectors' Jo Ann Kelly ... ].flac": 12692449, "Black Rat Swing The Collectors' Jo Anne Kelly ...
创建时间: 2019-01-02 02:26:08 大小:747.78 MB 文件数量:56 热度:9 最近下载:2025-09-21 07:10:04
    ... , "Wang.Chung -.Points.On.The.Curve.by.rat.eac.ape.covers.Israel ... , "Wang.Chung -.Points.On.The.Curve.by.rat.eac.ape.covers.Israel ... , "Wang.Chung -.Points.On.The.Curve.by.rat.eac.ape.covers.Israel ...
创建时间: 2019-01-02 21:50:12 大小:253.52 MB 文件数量:10 热度:11 最近下载:2025-02-17 21:55:03
    ... 310722, "1..f@.#k the world feed the rat.jpg": 3101, "Torrent ... 310722, "1..f@.#k the world feed the rat.jpg": 3101, "Torrent ... 310722, "1..f@.#k the world feed the rat.jpg": 3101, "Torrent ... 310722, "1..f@.#k the world feed the rat.jpg": 3101, "Torrent ...
创建时间: 2019-01-03 04:17:03 大小:3.8 GB 文件数量:284 热度:10 最近下载:2025-08-04 03:04:07
    {"cover-art": {"IMG.jpg": 1217734, "IMG_0001.jpg": 1179977, "IMG_0002.jpg": 3914791, "IMG_0003.jpg": 914668, "IMG_0004.jpg": 868693, "IMG_0005.jpg": 951523, "IMG_0006.jpg": 813630}, "GOODBYE.jpg": 5183, "04. Kinetic.mp3": 7598365, "05. Iron Years.mp3": ...
创建时间: 2019-01-03 05:04:18 大小:66.67 MB 文件数量:20 热度:5 最近下载:2022-11-12 10:13:26
    ... .txt": 84, "Vegas.Rat.Rods.S03E03.Fuel.To.The.Fire.1080p.HEVC ... .x265-MeGusta.mkv": 1554674289, "Vegas.Rat.Rods ... .S03E03.Fuel.To.The.Fire.1080p.HEVC ...
创建时间: 2019-01-04 06:24:59 大小:1.46 GB 文件数量:7 热度:7 最近下载:2025-09-11 21:22:10